Regional Weather Roundup
Issued by NWS

Home | Current Version | Previous Version | Graphics & Text | Print | Product List | Glossary On
Versions: 1 2 3 4 5 6 7 8 9 10 11 12 13 14 15 16 17 18 19 20 21 22 23 24 25 26 27
000
ASUS45 KPSR 172010
RWRAZ

ARIZONA HOURLY REGIONAL WEATHER ROUNDUP
NATIONAL WEATHER SERVICE PHOENIX AZ
100 PM MST THU AUG 17 2017

NOTE: FAIR INDICATES FEW OR NO CLOUDS BELOW 12,000 FEET WITH NO
SIGNIFICANT WEATHER AND/OR OBSTRUCTIONS TO VISIBILITY.

AZZ001>003-036-172100-
NORTHWEST ARIZONA

CITY           SKY/WX    TMP DP  RH WIND       PRES   REMARKS
KINGMAN        SUNNY     92  40  16 S7G17     30.10S
$$

AZZ004>008-015-016-018-172100-
NORTH CENTRAL ARIZONA

CITY           SKY/WX    TMP DP  RH WIND       PRES   REMARKS
GRAND CANYON   MOSUNNY   81  37  20 SW7G16    30.31F
WILLIAMS       SUNNY     79  30  17 S8        30.34S
PRESCOTT       SUNNY     83  39  21 SE8       30.22F
FLAGSTAFF      SUNNY     75  30  19 SW13      30.36S
PAYSON           N/A     82  23  11 VRB6G15   30.25F
PAGE           SUNNY     91  35  13 VRB3      30.12F
$$

AZZ009>014-017-172100-
NORTHEAST ARIZONA

CITY           SKY/WX    TMP DP  RH WIND       PRES   REMARKS
WINSLOW        SUNNY     89  35  14 S9        30.19F
SAINT JOHNS    SUNNY     84  37  18 SE6       30.25F
WINDOW ROCK    SUNNY     83  32  16 W10G22    30.31F
SHOW LOW         N/A    N/A N/A N/A MISG        N/A
$$

AZZ540-542>544-546-548-172100-
GREATER PHOENIX AREA

CITY           SKY/WX    TMP DP  RH WIND       PRES   REMARKS
PHOENIX        MOSUNNY   97  35  11 CALM      29.94F
BUCKEYE        SUNNY     99  43  14 SE8       29.95F
GLENDALE       MOSUNNY   99  41  13 CALM      29.96F
LUKE AFB       SUNNY     97  42  15 SE5       29.93F
DEER VALLEY    SUNNY     96  33  11 S6        29.96F
SCOTTSDALE     SUNNY     97  32  10 S8        29.98F
MESA-FALCON    SUNNY     99  39  12 SE8G16    29.98S
MESA-GATEWAY   SUNNY     97  36  11 S8        29.98F
CHANDLER       SUNNY     97  37  12 SE8       29.97S
$$

AZZ539-553-172100-
SOUTHWEST MARICOPA COUNTY AND PINAL COUNTY

CITY           SKY/WX    TMP DP  RH WIND       PRES   REMARKS
CASA GRANDE    SUNNY     97  43  15 S7        29.98F
GILA BEND      SUNNY    103  33   9 SE6       29.90F
$$

AZZ503-504-507>509-172100-
SOUTHEAST ARIZONA

CITY           SKY/WX    TMP DP  RH WIND       PRES   REMARKS
TUCSON         NOT AVBL
DAVIS-MONTHAN  SUNNY     96  39  13 NE6       30.05F
RYAN FIELD     SUNNY     93  36  13 NE7       30.05F
NOGALES        SUNNY     90  37  15 VRB3      30.16F
SIERRA VISTA   SUNNY     89  42  18 W10       30.21F
DOUGLAS        SUNNY     87  48  25 NW7       30.16F
SAFFORD        SUNNY     93  46  19 NW3       30.07F
$$

AZZ532-172100-
SOUTHWEST ARIZONA

CITY           SKY/WX    TMP DP  RH WIND       PRES   REMARKS
YUMA           SUNNY     99  43  14 VRB3      29.87F
$$

CAZ041-043-047-048-061-525>527-560>570-172100-
SOUTHERN CALIFORNIA

CITY           SKY/WX    TMP DP  RH WIND       PRES   REMARKS
DOWNTOWN L.A.  SUNNY     80  61  52 W6        29.99F
L.A. AIRPORT   MOSUNNY   74  63  68 W10G17    30.01F
SAN DIEGO      SUNNY     76  60  57 W7        30.02F
BURBANK        SUNNY     80  57  45 S7        29.99F
ONTARIO        SUNNY     84  54  35 VRB7      30.00F
RIVERSIDE      SUNNY     84  57  39 W9        29.99F
PALM SPRINGS   SUNNY    102  44  14 VRB6      29.89F
EL CENTRO NAS  SUNNY    100  45  15 SE8       29.87F
IMPERIAL       SUNNY    100  52  19 NE6       29.85F
BLYTHE         SUNNY    100  44  14 VRB5      29.88F
NEEDLES        SUNNY    105  34   8 SE10      29.91F
$$

NVZ020-UTZ003-172100-
SOUTHERN NEVADA-UTAH

CITY           SKY/WX    TMP DP  RH WIND       PRES   REMARKS
LAS VEGAS      MOSUNNY   97  41  14 VRB3      29.99F
SALT LAKE CITY MOSUNNY   89  39  17 W9        30.11F
$$

NMZ009-TXZ055-172100-
NEW MEXICO-WEST TEXAS

CITY           SKY/WX    TMP DP  RH WIND       PRES   REMARKS
ALBUQUERQUE    MOSUNNY   86  35  16 W3        30.21F
EL PASO        PTSUNNY   93  46  19 CALM      30.10F
$$


........................KEY........................
SKY/WX - SKY CONDITION/WEATHER
TMP    - TEMPERATURE IN FAHRENHEIT
DP     - DEW POINT IN FAHRENHEIT
RH     - RELATIVE HUMIDITY IN PERCENT
WIND   - DIRECTION AND SPEED IN MILES PER HOUR (MPH)
VRB    - VARIABLE WIND DIRECTION
PRES   - MEAN SEA LEVEL PRESSURE IN INCHES OF MERCURY
         F - FALLING PRESSURE   R - RISING PRESSURE
         S - STEADY PRESSURE
VSB    - VISIBILITY IN MILES
HX     - HEAT INDEX IN FAHRENHEIT
WCI    - WIND CHILL INDEX IN FAHRENHEIT
TC     - TEMPERATURE IN CELSIUS WHICH IS ALSO KNOWN AS
         TEMPERATURE IN CENTIGRADE
AFB    - AIR FORCE BASE
         LUKE AFB IS LUKE AIR FORCE BASE
         DAVIS-MONTHAN IS DAVIS-MONTHAN AIR FORCE BASE
NAS    - NAVAL AIR STATION
         EL CENTRO NAS IS EL CENTRO NAVAL AIR STATION
N/A    - NOT AVAILABLE





USA.gov is the U.S. government's official web portal to all federal, state and local government web resources and services.